Location: Lugrin
(46.4033°N, 6.6674°E)
Time: 06:45:30
(UTC+00:00)

SJ 16-02 - Pass Details

Date: 18 September 2020
Orbit: 606 x 616 km, 75.0° (Epoch: 23 October)

Event Time Altitude Azimuth Distance (km) Brightness Sun altitude
Rises 17:57:06 0° 201° (SSW) 2,852 5.0 -4.1°
Reaches altitude 10° 17:59:20 10° 202° (SSW) 1,952 4.1 -4.5°
Maximum altitude 18:03:42 81° 290° (WNW) 620 1.5 -5.2°
Drops below altitude 10° 18:08:05 10° 18° (NNE) 1,966 3.8 -5.9°
Sets 18:10:20 0° 20° (NNE) 2,875 4.7 -6.3°
